NIMBUS 2 DEB, 59971

Orbit data source: Space-Track

NIMBUS 2 DEB, 59971 is space debris in SSO originally from a launch on Sun, 15 May 1966 UTC launched from the Air Force Western Test Range (AFWTR). Debris objects in space refer to the collection of defunct objects orbiting the Earth. Examples of debris include non-operational satellites, rocket bodies, and fragments generated from explosions, collisions, or faulty payload assembly.

Loading next visibility...
Identifier
59971, 1966-040CA
Orbit
SSO
Country
Flag of USUS
Related business
Manufacturer
Unknown
Mission
Spacecraft
Bus & Motor
Unknown
Mass
Unknown
Launch date (UTC)
1966-05-15 (60 years ago)
Launch vehicle
Unknown
Launch site
Air Force Western Test Range (AFWTR)
Object type
Payload
Rocket body
Debris
Shape & HBR
Unknown shape, 0.1 m
Radar Cross Section
Small (<0.1 m²)

Expand to show TLE details & history
Last TLE update: 10 hours ago

TLE from 10 hours ago
0 NIMBUS 2 DEB
1 59971U 66040CA  26128.10277889  .00001351  00000-0  25229-2 0  9990
2 59971 100.4404 335.7344 0059763 352.4213   7.6005 13.40491252253958
Epoch: 2026-05-08T02:28Z
TLE epoch observation values (Epoch: 2026-05-08T02:28:00.096Z)
Latitude
0.00001°
Longitude
72.79462°
Altitude
1,065.85 km
Speed
7.341 km/s
True Right ascension
22h 22m 56s
True Declination
0° 00' 00"
Sunlit
Object was in daylight at epoch
Visualization orbit readout
Latitude
Unknown
Longitude
Unknown
Altitude
Unknown
Speed
Unknown
Apparent Right ascension
Unknown
Apparent Declination
Unknown
Sunlit
N/A
Visualization observer readout
Local Sidereal Time
20:21:07
Azimuth
Unknown
Elevation
Unknown
Doppler factor
Unknown
Orbital elements
Apogee altitude
1,149.523 km
Perigee altitude
1,060.083 km
Semi-major axis
7,482.94 km
Eccentricity
0.00598
Inclination
100.4404°
RAAN
335.7344°
Arg. of periapsis
352.4213°
True anomaly
7.69176°
Mean anomaly
7.6005°
Eccentric anomaly
7.64606°
Mean motion
3.35301 °/min
Orbital period
107.37 mins
BSTAR
0.0025229
Loading maneuver chart data...
Computing Atmospheric mass density...
Loading historical data...
Loading historical data...
Loading historical data...
Loading historical data...
Loading historical data...
Loading historical data...
Loading historical data...

Documentation

Showing up to 5 results
|